TimeEDT,TemperatureF,Dew PointF,Humidity,Sea Level PressureIn,VisibilityMPH,Wind Direction,Wind SpeedMPH,Gust SpeedMPH,PrecipitationIn,Events,Conditions,WindDirDegrees,DateUTC
12:53 AM,75.9,73.0,91,29.91,10.0,West,3.5,-,N/A,,Clear,260,2013-08-14 04:53:00
1:53 AM,75.0,73.0,94,29.91,10.0,SSW,3.5,-,N/A,,Clear,210,2013-08-14 05:53:00
2:53 AM,73.9,72.0,93,29.91,10.0,WSW,4.6,-,0.01,,Clear,240,2013-08-14 06:53:00
3:53 AM,73.9,72.0,93,29.90,10.0,WSW,4.6,-,N/A,,Clear,240,2013-08-14 07:53:00
4:01 AM,73.4,71.6,94,29.91,10.0,WSW,5.8,-,N/A,,Partly Cloudy,240,2013-08-14 08:01:00
4:53 AM,73.0,72.0,96,29.90,10.0,WSW,4.6,-,N/A,,Partly Cloudy,250,2013-08-14 08:53:00
5:41 AM,73.4,71.6,94,29.92,10.0,WSW,5.8,-,N/A,,Mostly Cloudy,250,2013-08-14 09:41:00
5:53 AM,73.0,72.0,96,29.91,10.0,West,6.9,-,N/A,,Mostly Cloudy,270,2013-08-14 09:53:00
6:05 AM,73.4,71.6,94,29.92,10.0,West,5.8,-,0.01,,Scattered Clouds,270,2013-08-14 10:05:00
6:53 AM,73.0,72.0,96,29.92,10.0,WSW,5.8,-,0.02,,Clear,250,2013-08-14 10:53:00
7:53 AM,73.0,72.0,96,29.94,10.0,West,5.8,-,N/A,,Clear,280,2013-08-14 11:53:00
8:38 AM,73.4,71.6,94,29.96,10.0,West,5.8,-,N/A,,Scattered Clouds,260,2013-08-14 12:38:00
8:53 AM,75.0,73.0,94,29.94,10.0,WNW,5.8,-,N/A,,Mostly Cloudy,300,2013-08-14 12:53:00
9:13 AM,75.2,73.4,94,29.96,10.0,WNW,4.6,-,N/A,,Overcast,300,2013-08-14 13:13:00
9:53 AM,75.0,73.0,94,29.95,10.0,WNW,5.8,-,0.00,,Overcast,290,2013-08-14 13:53:00
10:53 AM,75.9,72.0,87,29.95,10.0,Calm,Calm,-,N/A,,Mostly Cloudy,0,2013-08-14 14:53:00
11:53 AM,79.0,73.0,82,29.95,10.0,Calm,Calm,-,N/A,,Mostly Cloudy,0,2013-08-14 15:53:00
12:53 PM,80.1,73.0,79,29.94,10.0,Calm,Calm,-,N/A,,Clear,0,2013-08-14 16:53:00
1:53 PM,80.1,73.0,79,29.94,10.0,Calm,Calm,-,N/A,,Partly Cloudy,0,2013-08-14 17:53:00
2:53 PM,82.9,73.0,72,29.92,10.0,WNW,3.5,-,N/A,,Clear,290,2013-08-14 18:53:00
3:53 PM,84.9,72.0,65,29.90,10.0,Variable,3.5,-,N/A,,Partly Cloudy,0,2013-08-14 19:53:00
4:26 PM,82.4,73.4,74,29.91,10.0,NNE,3.5,-,N/A,,Overcast,30,2013-08-14 20:26:00
4:33 PM,82.4,73.4,74,29.91,10.0,NNE,6.9,-,N/A,,Overcast,20,2013-08-14 20:33:00
4:53 PM,84.0,71.1,65,29.89,10.0,ENE,3.5,-,N/A,,Mostly Cloudy,70,2013-08-14 20:53:00
5:53 PM,82.0,72.0,71,29.90,10.0,NE,3.5,-,N/A,,Partly Cloudy,50,2013-08-14 21:53:00
6:39 PM,78.8,73.4,83,29.93,7.0,NNW,5.8,31.1,0.00,Rain,Rain,340,2013-08-14 22:39:00
6:46 PM,75.2,75.2,100,29.92,1.8,Variable,3.5,-,0.11,Rain,Heavy Rain,0,2013-08-14 22:46:00
6:53 PM,75.9,75.0,97,29.92,2.5,Calm,Calm,-,0.19,Rain,Rain,0,2013-08-14 22:53:00
7:00 PM,77.0,75.2,94,29.93,5.0,Calm,Calm,-,0.01,Thunderstorm,Thunderstorm,0,2013-08-14 23:00:00
7:27 PM,73.4,71.6,94,29.94,4.0,Calm,Calm,-,0.09,Rain-Thunderstorm,Thunderstorms and Rain,0,2013-08-14 23:27:00
7:36 PM,73.4,71.6,94,29.95,4.0,SSE,8.1,-,0.13,Rain,Rain,160,2013-08-14 23:36:00
7:42 PM,71.6,71.6,100,29.95,6.0,SSE,5.8,-,0.14,Rain-Thunderstorm,Thunderstorms and Rain,160,2013-08-14 23:42:00
7:49 PM,71.6,71.6,100,29.96,6.0,South,3.5,-,0.17,Rain-Thunderstorm,Thunderstorms and Rain,170,2013-08-14 23:49:00
7:53 PM,72.0,71.1,97,29.95,7.0,SSE,3.5,-,0.17,Rain,Light Rain,160,2013-08-14 23:53:00
8:53 PM,73.0,72.0,96,29.95,10.0,East,5.8,-,0.02,Rain,Light Rain,100,2013-08-15 00:53:00
9:03 PM,73.4,71.6,94,29.96,10.0,ENE,5.8,-,0.00,Rain,Light Rain,70,2013-08-15 01:03:00
9:19 PM,73.4,71.6,94,29.97,10.0,NE,5.8,-,0.00,,Mostly Cloudy,50,2013-08-15 01:19:00
9:33 PM,73.4,73.4,100,29.98,9.0,ENE,3.5,-,0.00,,Mostly Cloudy,60,2013-08-15 01:33:00
9:53 PM,73.9,73.0,97,29.98,8.0,East,5.8,-,0.00,Rain,Light Rain,90,2013-08-15 01:53:00
10:22 PM,73.4,71.6,94,30.00,7.0,East,6.9,-,0.02,Rain,Light Rain,80,2013-08-15 02:22:00
10:45 PM,73.4,71.6,94,30.00,7.0,East,6.9,-,0.02,Rain,Light Rain,90,2013-08-15 02:45:00
10:53 PM,72.0,72.0,100,29.99,7.0,East,6.9,-,0.02,,Mostly Cloudy,80,2013-08-15 02:53:00
11:06 PM,71.6,71.6,100,30.00,9.0,East,5.8,-,N/A,,Mostly Cloudy,90,2013-08-15 03:06:00
11:31 PM,71.6,69.8,94,30.01,9.0,East,4.6,-,N/A,,Mostly Cloudy,100,2013-08-15 03:31:00
11:53 PM,71.1,70.0,96,30.00,8.0,ESE,4.6,-,N/A,,Overcast,110,2013-08-15 03:53:00